,,Stat1,,Stat2,,Stat3,,Stat4,,Wind1,,Wind1,
time,status,PR1M_SUM,status,RH1M_AVG,status,SR1M_AVG,status,TA1M_AVG,status,W1dAve1m,status,W1sAve1m,
1999-08-29, 00:00:00,VALID,0,VALID,100,VALID,0.0169808,VALID,18.6491,VALID,105,VALID,0,
1999-08-29, 00:01:00,VALID,0,VALID,100,VALID,0.0169808,VALID,18.6168,VALID,105,VALID,0,
1999-08-29, 00:02:00,VALID,0,VALID,100,VALID,0,VALID,18.5854,VALID,105,VALID,0,
1999-08-29, 00:03:00,VALID,0,VALID,100,VALID,0.0169808,VALID,18.5524,VALID,105,VALID,0,
1999-08-29, 00:04:00,VALID,0,VALID,100,VALID,0,VALID,18.546,VALID,105,VALID,0,
1999-08-29, 00:05:00,VALID,0,VALID,100,VALID,0.0169808,VALID,18.5492,VALID,105,VALID,0,
1999-08-29, 00:06:00,VALID,0,VALID,100,VALID,0.0339617,VALID,18.5624,VALID,105,VALID,0,
1999-08-29, 00:07:00,VALID,0,VALID,100,VALID,0,VALID,18.5587,VALID,111,VALID,0,
1999-08-29, 00:08:00,VALID,0,VALID,100,VALID,-0.0849042,VALID,18.5698,VALID,122,VALID,0,
1999-08-29, 00:09:00,VALID,0,VALID,100,VALID,-0.101885,VALID,18.5827,VALID,123,VALID,0,
1999-08-29, 00:10:00,VALID,0,VALID,100,VALID,-0.101885,VALID,18.5831,VALID,137,VALID,0,
1999-08-29, 00:11:00,VALID,0,VALID,100,VALID,-0.0849042,VALID,18.5663,VALID,136,VALID,0,
1999-08-29, 00:12:00,VALID,0,VALID,100,VALID,-0.0849042,VALID,18.573,VALID,136,VALID,0,
1999-08-29, 00:13:00,VALID,0,VALID,100,VALID,-0.101885,VALID,18.5797,VALID,123,VALID,0,
1999-08-29, 00:14:00,VALID,0,VALID,100,VALID,-0.0679233,VALID,18.5827,VALID,117,VALID,0,
1999-08-29, 00:15:00,VALID,0,VALID,100,VALID,-0.101885,VALID,18.5861,VALID,130,VALID,0,
1999-08-29, 00:16:00,VALID,0,VALID,100,VALID,-0.0849042,VALID,18.5864,VALID,130,VALID,0,
1999-08-29, 00:17:00,VALID,0,VALID,100,VALID,-0.101885,VALID,18.573,VALID,129,VALID,0.355859,
1999-08-29, 00:18:00,VALID,0,VALID,100,VALID,-0.0849042,VALID,18.5827,VALID,129,VALID,0.591016,
1999-08-29, 00:19:00,VALID,0,VALID,100,VALID,-0.0849042,VALID,18.5762,VALID,115,VALID,0.522461,
1999-08-29, 00:20:00,VALID,0,VALID,100,VALID,-0.101885,VALID,18.5896,VALID,129,VALID,0.138091,
1999-08-29, 00:21:00,VALID,0,VALID,100,VALID,-0.0679233,VALID,18.5827,VALID,141,VALID,0,
1999-08-29, 00:22:00,VALID,0,VALID,100,VALID,-0.0679233,VALID,18.573,VALID,153,VALID,0,
1999-08-29, 00:23:00,VALID,0,VALID,100,VALID,-0.101885,VALID,18.57,VALID,150,VALID,0,
1999-08-29, 00:24:00,VALID,0,VALID,100,VALID,-0.0679233,VALID,18.5698,VALID,133,VALID,0,
1999-08-29, 00:25:00,VALID,0,VALID,100,VALID,-0.0849042,VALID,18.5827,VALID,136,VALID,0,
1999-08-29, 00:26:00,VALID,0,VALID,100,VALID,-0.118866,VALID,18.5765,VALID,151,VALID,0,
1999-08-29, 00:27:00,VALID,0,VALID,100,VALID,-0.101885,VALID,18.5799,VALID,158,VALID,0,
1999-08-29, 00:28:00,VALID,0,VALID,100,VALID,-0.101885,VALID,18.5603,VALID,153,VALID,0,
1999-08-29, 00:29:00,VALID,0,VALID,100,VALID,-0.0849042,VALID,18.5702,VALID,168,VALID,0,
1999-08-29, 00:30:00,VALID,0,VALID,100,VALID,-0.101885,VALID,18.567,VALID,171,VALID,0,
1999-08-29, 00:31:00,VALID,0,VALID,100,VALID,-0.0849042,VALID,18.5797,VALID,141,VALID,0,
1999-08-29, 00:32:00,VALID,0,VALID,100,VALID,-0.0849042,VALID,18.5799,VALID,118,VALID,0.0569196,
1999-08-29, 00:33:00,VALID,0,VALID,100,VALID,-0.0849042,VALID,18.5765,VALID,113,VALID,0.418555,
1999-08-29, 00:34:00,VALID,0,VALID,100,VALID,-0.101885,VALID,18.609,VALID,81,VALID,0.735742,
1999-08-29, 00:35:00,VALID,0,VALID,100,VALID,-0.118866,VALID,18.5928,VALID,79,VALID,1.2207,
1999-08-29, 00:36:00,VALID,0,VALID,100,VALID,-0.0849042,VALID,18.5889,VALID,96,VALID,0.915752,
1999-08-29, 00:37:00,VALID,0,VALID,100,VALID,-0.0339617,VALID,18.5956,VALID,88,VALID,0.736909,
1999-08-29, 00:38:00,VALID,0,VALID,100,VALID,0.0169808,VALID,18.6074,VALID,78,VALID,0.257595,
1999-08-29, 00:39:01,VALID,0,VALID,100,VALID,0.0169808,VALID,18.5974,VALID,36,VALID,0.29603,
1999-08-29, 00:40:00,VALID,0,VALID,100,VALID,0,VALID,18.5884,VALID,13,VALID,0.281696,
1999-08-29, 00:41:00,VALID,0,VALID,100,VALID,0.0169808,VALID,18.6044,VALID,13,VALID,0.00253906,
1999-08-29, 00:42:00,VALID,0,VALID,100,VALID,0,VALID,18.6009,VALID,325,VALID,0.0570313,
1999-08-29, 00:43:00,VALID,0,VALID,100,VALID,0.0339617,VALID,18.6141,VALID,258,VALID,0.0280762,
1999-08-29, 00:44:00,VALID,0,VALID,100,VALID,0,VALID,18.6138,VALID,259,VALID,0,
1999-08-29, 00:45:00,VALID,0,VALID,100,VALID,0.0339617,VALID,18.6009,VALID,263,VALID,0,
1999-08-29, 00:46:00,VALID,0,VALID,100,VALID,0.0169808,VALID,18.5944,VALID,263,VALID,0,
1999-08-29, 00:47:00,VALID,0,VALID,100,VALID,0.0169808,VALID,18.5882,VALID,263,VALID,0,
1999-08-29, 00:48:00,VALID,0,VALID,100,VALID,0.0169808,VALID,18.585,VALID,264,VALID,0,
1999-08-29, 00:49:00,VALID,0,VALID,100,VALID,0,VALID,18.5845,VALID,267,VALID,0,
1999-08-29, 00:50:00,VALID,0,VALID,100,VALID,0,VALID,18.5817,VALID,270,VALID,0,
1999-08-29, 00:51:00,VALID,0,VALID,100,VALID,0.0169808,VALID,18.5951,VALID,283,VALID,0,
1999-08-29, 00:52:00,VALID,0,VALID,100,VALID,0,VALID,18.582,VALID,287,VALID,0,
1999-08-29, 00:53:00,VALID,0,VALID,100,VALID,0.0339617,VALID,18.5589,VALID,290,VALID,0,
1999-08-29, 00:54:00,VALID,0,VALID,100,VALID,0,VALID,18.5457,VALID,273,VALID,0,
1999-08-29, 00:55:00,VALID,0,VALID,100,VALID,0,VALID,18.5654,VALID,268,VALID,0,
1999-08-29, 00:56:00,VALID,0,VALID,100,VALID,0,VALID,18.5658,VALID,270,VALID,0,
1999-08-29, 00:57:00,VALID,0,VALID,100,VALID,0.0339617,VALID,18.5721,VALID,281,VALID,0,
1999-08-29, 00:58:00,VALID,0,VALID,100,VALID,0,VALID,18.572,VALID,283,VALID,0,
1999-08-29, 00:59:00,VALID,0,VALID,100,VALID,0.0169808,VALID,18.5785,VALID,281,VALID,0,
1999-08-29, 01:00:00,VALID,0,VALID,100,VALID,0,VALID,18.5716,VALID,278,VALID,0,
1999-08-29, 01:01:00,VALID,0,VALID,100,VALID,0.0339617,VALID,18.5815,VALID,278,VALID,0,
1999-08-29, 01:02:00,VALID,0,VALID,100,VALID,0.0339617,VALID,18.5753,VALID,278,VALID,0,
1999-08-29, 01:03:00,VALID,0,VALID,100,VALID,0.0169808,VALID,18.5713,VALID,285,VALID,0,
1999-08-29, 01:04:00,VALID,0,VALID,100,VALID,0,VALID,18.5743,VALID,286,VALID,0,
1999-08-29, 01:05:00,VALID,0,VALID,100,VALID,0.0169808,VALID,18.5947,VALID,286,VALID,0,
1999-08-29, 01:06:00,VALID,0,VALID,100,VALID,0,VALID,18.5884,VALID,288,VALID,0,
1999-08-29, 01:07:00,VALID,0,VALID,100,VALID,0,VALID,18.5884,VALID,288,VALID,0,
1999-08-29, 01:08:00,VALID,0,VALID,100,VALID,0,VALID,18.5753,VALID,289,VALID,0,
1999-08-29, 01:09:00,VALID,0,VALID,100,VALID,0,VALID,18.5984,VALID,292,VALID,0,
1999-08-29, 01:10:00,VALID,0,VALID,100,VALID,0,VALID,18.6178,VALID,294,VALID,0.101345,
1999-08-29, 01:11:01,VALID,0,VALID,100,VALID,0,VALID,18.5882,VALID,300,VALID,0.104096,
1999-08-29, 01:12:00,VALID,0,VALID,100,VALID,0,VALID,18.5817,VALID,296,VALID,0,
1999-08-29, 01:13:00,VALID,0,VALID,100,VALID,0,VALID,18.5753,VALID,272,VALID,0.109961,
1999-08-29, 01:14:00,VALID,0,VALID,100,VALID,0,VALID,18.5857,VALID,290,VALID,0.258984,
1999-08-29, 01:15:00,VALID,0,VALID,100,VALID,0,VALID,18.5917,VALID,339,VALID,0.307129,
1999-08-29, 01:16:00,VALID,0,VALID,100,VALID,0.0169808,VALID,18.5787,VALID,335,VALID,0.144426,
1999-08-29, 01:17:00,VALID,0,VALID,100,VALID,0,VALID,18.5884,VALID,359,VALID,0.393792,
1999-08-29, 01:18:00,VALID,0,VALID,100,VALID,0.0169808,VALID,18.5884,VALID,101,VALID,0.522135,
1999-08-29, 01:19:00,VALID,0,VALID,100,VALID,0,VALID,18.6016,VALID,119,VALID,0.103463,
1999-08-29, 01:20:00,VALID,0,VALID,100,VALID,0,VALID,18.5947,VALID,119,VALID,0.0247768,
1999-08-29, 01:21:00,VALID,0,VALID,100,VALID,0,VALID,18.5783,VALID,176,VALID,0.00234375,
1999-08-29, 01:22:00,VALID,0,VALID,100,VALID,-0.0169808,VALID,18.5954,VALID,203,VALID,0,
1999-08-29, 01:23:00,VALID,0,VALID,100,VALID,-0.101885,VALID,18.5834,VALID,229,VALID,0,
1999-08-29, 01:24:00,VALID,0,VALID,100,VALID,-0.101885,VALID,18.567,VALID,210,VALID,0,
1999-08-29, 01:25:00,VALID,0,VALID,100,VALID,-0.0849042,VALID,18.567,VALID,206,VALID,0,
1999-08-29, 01:26:00,VALID,0,VALID,100,VALID,-0.118866,VALID,18.5705,VALID,220,VALID,0,
1999-08-29, 01:27:00,VALID,0,VALID,100,VALID,-0.0849042,VALID,18.5839,VALID,227,VALID,0,
1999-08-29, 01:28:00,VALID,0,VALID,100,VALID,-0.101885,VALID,18.561,VALID,227,VALID,0,
1999-08-29, 01:29:00,VALID,0,VALID,100,VALID,-0.101885,VALID,18.5672,VALID,227,VALID,0,
1999-08-29, 01:30:00,VALID,0,VALID,100,VALID,-0.101885,VALID,18.5765,VALID,227,VALID,0,
1999-08-29, 01:31:00,VALID,0,VALID,100,VALID,-0.101885,VALID,18.5931,VALID,210,VALID,0,
1999-08-29, 01:32:00,VALID,0,VALID,100,VALID,-0.101885,VALID,18.5864,VALID,186,VALID,0,
1999-08-29, 01:33:00,VALID,0,VALID,100,VALID,-0.0849042,VALID,18.5868,VALID,134,VALID,0.287584,
1999-08-29, 01:34:00,VALID,0,VALID,100,VALID,-0.0509425,VALID,18.5995,VALID,117,VALID,0.531684,
1999-08-29, 01:35:00,VALID,0,VALID,100,VALID,-0.101885,VALID,18.5961,VALID,119,VALID,0.422086,
1999-08-29, 01:36:00,VALID,0,VALID,100,VALID,-0.0849042,VALID,18.6058,VALID,112,VALID,0.299107,
1999-08-29, 01:37:00,VALID,0,VALID,100,VALID,-0.0679233,VALID,18.6028,VALID,100,VALID,0.480469,
1999-08-29, 01:38:00,VALID,0,VALID,100,VALID,0.0849042,VALID,18.5713,VALID,97,VALID,0.728516,
1999-08-29, 01:39:00,VALID,0,VALID,100,VALID,0.0679233,VALID,18.5776,VALID,98,VALID,0.653076,
1999-08-29, 01:40:00,VALID,0,VALID,100,VALID,0.101885,VALID,18.581,VALID,101,VALID,0.889358,
1999-08-29, 01:41:00,VALID,0,VALID,100,VALID,0.101885,VALID,18.5676,VALID,123,VALID,0.32897,
1999-08-29, 01:42:00,VALID,0,VALID,100,VALID,0.0849042,VALID,18.5776,VALID,103,VALID,0,
1999-08-29, 01:43:00,VALID,0,VALID,100,VALID,0.0169808,VALID,18.6041,VALID,81,VALID,0,
1999-08-29, 01:44:00,VALID,0,VALID,100,VALID,0.0679233,VALID,18.5907,VALID,100,VALID,0,
1999-08-29, 01:45:01,VALID,0,VALID,100,VALID,0.0849042,VALID,18.584,VALID,116,VALID,0,
1999-08-29, 01:46:00,VALID,0,VALID,100,VALID,0.0339617,VALID,18.5683,VALID,116,VALID,0,
1999-08-29, 01:47:00,VALID,0,VALID,100,VALID,0.0509425,VALID,18.5455,VALID,104,VALID,0.309814,
1999-08-29, 01:48:00,VALID,0,VALID,100,VALID,0.0509425,VALID,18.5614,VALID,103,VALID,0.650971,
1999-08-29, 01:49:00,VALID,0,VALID,100,VALID,0.0509425,VALID,18.5587,VALID,87,VALID,0.779561,
1999-08-29, 01:50:00,VALID,0,VALID,100,VALID,0.0339617,VALID,18.539,VALID,99,VALID,0.688151,
1999-08-29, 01:51:00,VALID,0,VALID,100,VALID,0.0169808,VALID,18.5358,VALID,97,VALID,0.416174,
1999-08-29, 01:52:00,VALID,0,VALID,100,VALID,0.0679233,VALID,18.5455,VALID,96,VALID,0.31942,
1999-08-29, 01:53:00,VALID,0,VALID,100,VALID,0.0509425,VALID,18.5363,VALID,81,VALID,0.448047,
1999-08-29, 01:54:00,VALID,0,VALID,100,VALID,0.0679233,VALID,18.5127,VALID,59,VALID,0.447852,
1999-08-29, 01:55:00,VALID,0,VALID,100,VALID,0.0849042,VALID,18.4965,VALID,62,VALID,0.342529,
1999-08-29, 01:56:01,VALID,0,VALID,100,VALID,0.0849042,VALID,18.5032,VALID,73,VALID,0.444257,
1999-08-29, 01:57:00,VALID,0,VALID,100,VALID,0.0509425,VALID,18.497,VALID,62,VALID,0.697846,
1999-08-29, 01:58:00,VALID,0,VALID,100,VALID,0.0679233,VALID,18.4836,VALID,84,VALID,0.580729,
1999-08-29, 01:59:00,VALID,0,VALID,100,VALID,0.0679233,VALID,18.5005,VALID,83,VALID,0.557644,
1999-08-29, 02:00:00,VALID,0,VALID,100,VALID,0.101885,VALID,18.5129,VALID,101,VALID,0.235045,
1999-08-29, 02:01:00,VALID,0,VALID,100,VALID,0.0679233,VALID,18.5226,VALID,83,VALID,0.144727,
1999-08-29, 02:02:00,VALID,0,VALID,100,VALID,0.0849042,VALID,18.5157,VALID,70,VALID,0.01875,
1999-08-29, 02:03:00,VALID,0,VALID,100,VALID,0.101885,VALID,18.5,VALID,58,VALID,0.172852,
1999-08-29, 02:04:00,VALID,0,VALID,100,VALID,0.0679233,VALID,18.4806,VALID,55,VALID,0.0126689,
1999-08-29, 02:05:00,VALID,0,VALID,100,VALID,0.101885,VALID,18.4707,VALID,55,VALID,0,
1999-08-29, 02:06:00,VALID,0,VALID,100,VALID,0.101885,VALID,18.4809,VALID,55,VALID,0,
1999-08-29, 02:07:01,VALID,0,VALID,100,VALID,0.0849042,VALID,18.4776,VALID,55,VALID,0,
1999-08-29, 02:08:00,VALID,0,VALID,100,VALID,0.101885,VALID,18.4933,VALID,55,VALID,0,
1999-08-29, 02:09:00,VALID,0,VALID,100,VALID,0.0679233,VALID,18.5199,VALID,55,VALID,0,
1999-08-29, 02:10:00,VALID,0,VALID,100,VALID,0.0679233,VALID,18.5256,VALID,73,VALID,0,
1999-08-29, 02:11:00,VALID,0,VALID,100,VALID,0.0679233,VALID,18.5418,VALID,91,VALID,0.743164,
1999-08-29, 02:12:00,VALID,0,VALID,100,VALID,0.0849042,VALID,18.5554,VALID,90,VALID,1.16554,
1999-08-29, 02:13:00,VALID,0,VALID,100,VALID,0.0679233,VALID,18.5291,VALID,89,VALID,0.879223,
1999-08-29, 02:14:00,VALID,0.2,VALID,100,VALID,0.0509425,VALID,18.5129,VALID,71,VALID,0.402127,
1999-08-29, 02:15:00,VALID,0,VALID,100,VALID,0.0169808,VALID,18.4936,VALID,41,VALID,0.683277,
1999-08-29, 02:16:00,VALID,0,VALID,100,VALID,0.0509425,VALID,18.4839,VALID,67,VALID,0.568527,
1999-08-29, 02:17:00,VALID,0,VALID,100,VALID,0.0849042,VALID,18.497,VALID,97,VALID,0.585352,
1999-08-29, 02:18:01,VALID,0,VALID,100,VALID,0.0339617,VALID,18.5099,VALID,82,VALID,0.638672,
1999-08-29, 02:19:00,VALID,0,VALID,100,VALID,0.0849042,VALID,18.5129,VALID,80,VALID,0.532471,
1999-08-29, 02:20:00,VALID,0,VALID,100,VALID,0.101885,VALID,18.4901,VALID,72,VALID,0.441723,
1999-08-29, 02:21:00,VALID,0,VALID,100,VALID,0.0849042,VALID,18.4938,VALID,75,VALID,0.487331,
1999-08-29, 02:22:00,VALID,0,VALID,100,VALID,0.0509425,VALID,18.4906,VALID,80,VALID,0.601563,
1999-08-29, 02:23:00,VALID,0,VALID,100,VALID,-0.0339617,VALID,18.4887,VALID,81,VALID,0.587416,
1999-08-29, 02:24:00,VALID,0,VALID,100,VALID,0,VALID,18.4818,VALID,82,VALID,0.656027,
1999-08-29, 02:25:00,VALID,0,VALID,100,VALID,-0.0339617,VALID,18.479,VALID,57,VALID,0.588477,
1999-08-29, 02:26:00,VALID,0,VALID,100,VALID,-0.0169808,VALID,18.4659,VALID,85,VALID,0.562109,
1999-08-29, 02:27:00,VALID,0,VALID,100,VALID,-0.0339617,VALID,18.4534,VALID,51,VALID,0.933594,
1999-08-29, 02:28:00,VALID,0,VALID,100,VALID,-0.0339617,VALID,18.434,VALID,30,VALID,0.568834,
1999-08-29, 02:29:01,VALID,0,VALID,100,VALID,-0.0169808,VALID,18.4375,VALID,343,VALID,0.714949,
1999-08-29, 02:30:00,VALID,0,VALID,100,VALID,-0.0339617,VALID,18.4372,VALID,332,VALID,0.0844184,
1999-08-29, 02:31:00,VALID,0,VALID,100,VALID,-0.0339617,VALID,18.4467,VALID,89,VALID,0.200802,
1999-08-29, 02:32:00,VALID,0,VALID,100,VALID,-0.0339617,VALID,18.4659,VALID,81,VALID,0.282143,
1999-08-29, 02:33:00,VALID,0,VALID,100,VALID,-0.0169808,VALID,18.4594,VALID,81,VALID,0.105078,
1999-08-29, 02:34:00,VALID,0,VALID,100,VALID,-0.0339617,VALID,18.479,VALID,98,VALID,0.616797,
1999-08-29, 02:35:00,VALID,0,VALID,100,VALID,-0.0339617,VALID,18.4689,VALID,98,VALID,0.564453,
1999-08-29, 02:36:00,VALID,0,VALID,100,VALID,-0.0339617,VALID,18.4661,VALID,97,VALID,0.664696,
1999-08-29, 02:37:00,VALID,0,VALID,100,VALID,0,VALID,18.4693,VALID,95,VALID,0.345228,
1999-08-29, 02:38:00,VALID,0,VALID,100,VALID,-0.0169808,VALID,18.4599,VALID,97,VALID,0.132161,
1999-08-29, 02:39:01,VALID,0,VALID,100,VALID,-0.0509425,VALID,18.4728,VALID,101,VALID,0.258235,
1999-08-29, 02:40:01,VALID,0,VALID,100,VALID,-0.0169808,VALID,18.4693,VALID,110,VALID,0.224777,
1999-08-29, 02:41:00,VALID,0,VALID,100,VALID,-0.0169808,VALID,18.4402,VALID,112,VALID,0.485742,
1999-08-29, 02:42:00,VALID,0,VALID,100,VALID,-0.0169808,VALID,18.4409,VALID,115,VALID,0.401563,
1999-08-29, 02:43:00,VALID,0,VALID,100,VALID,-0.0339617,VALID,18.4372,VALID,119,VALID,0.324951,
1999-08-29, 02:44:00,VALID,0,VALID,100,VALID,-0.0339617,VALID,18.4241,VALID,106,VALID,0.383446,
1999-08-29, 02:45:00,VALID,0,VALID,100,VALID,-0.0509425,VALID,18.4437,VALID,98,VALID,0.509291,
1999-08-29, 02:46:00,VALID,0,VALID,100,VALID,0,VALID,18.4407,VALID,101,VALID,0.422092,
1999-08-29, 02:47:00,VALID,0.2,VALID,100,VALID,-0.0339617,VALID,18.434,VALID,101,VALID,0.444257,
1999-08-29, 02:48:00,VALID,0,VALID,100,VALID,-0.0339617,VALID,18.4208,VALID,99,VALID,0.513393,
1999-08-29, 02:49:00,VALID,0,VALID,100,VALID,0,VALID,18.4139,VALID,101,VALID,0.261914,
1999-08-29, 02:50:00,VALID,0,VALID,100,VALID,0,VALID,18.4176,VALID,105,VALID,0,
1999-08-29, 02:51:01,VALID,0,VALID,100,VALID,-0.0169808,VALID,18.434,VALID,105,VALID,0,
1999-08-29, 02:52:00,VALID,0,VALID,100,VALID,-0.0169808,VALID,18.4238,VALID,106,VALID,0,
1999-08-29, 02:53:00,VALID,0,VALID,100,VALID,0,VALID,18.4273,VALID,121,VALID,0,
1999-08-29, 02:54:00,VALID,0,VALID,100,VALID,0,VALID,18.4305,VALID,121,VALID,0,
1999-08-29, 02:55:00,VALID,0,VALID,100,VALID,0,VALID,18.4176,VALID,141,VALID,0,
1999-08-29, 02:56:00,VALID,0,VALID,100,VALID,0,VALID,18.4042,VALID,143,VALID,0,
1999-08-29, 02:57:00,VALID,0,VALID,100,VALID,0,VALID,18.3915,VALID,144,VALID,0,
1999-08-29, 02:58:00,VALID,0,VALID,100,VALID,-0.0169808,VALID,18.3791,VALID,144,VALID,0,
1999-08-29, 02:59:00,VALID,0,VALID,100,VALID,0,VALID,18.3855,VALID,144,VALID,0,
1999-08-29, 03:00:00,VALID,0,VALID,100,VALID,-0.0339617,VALID,18.3793,VALID,144,VALID,0,
1999-08-29, 03:01:00,VALID,0,VALID,100,VALID,-0.0339617,VALID,18.4056,VALID,144,VALID,0,
1999-08-29, 03:02:00,VALID,0,VALID,100,VALID,-0.0169808,VALID,18.3985,VALID,144,VALID,0,
1999-08-29, 03:03:00,VALID,0,VALID,100,VALID,0,VALID,18.4183,VALID,144,VALID,0,
1999-08-29, 03:04:00,VALID,0,VALID,100,VALID,-0.0339617,VALID,18.4213,VALID,144,VALID,0,
1999-08-29, 03:05:00,VALID,0,VALID,100,VALID,-0.0169808,VALID,18.4243,VALID,144,VALID,0,
1999-08-29, 03:06:00,VALID,0,VALID,100,VALID,-0.0169808,VALID,18.4476,VALID,144,VALID,0,
1999-08-29, 03:07:00,VALID,0,VALID,100,VALID,-0.0339617,VALID,18.4176,VALID,144,VALID,0,
1999-08-29, 03:08:00,VALID,0,VALID,100,VALID,-0.0509425,VALID,18.4183,VALID,153,VALID,0,
1999-08-29, 03:09:00,VALID,0,VALID,100,VALID,-0.0339617,VALID,18.4049,VALID,165,VALID,0,
1999-08-29, 03:10:00,VALID,0,VALID,100,VALID,-0.0169808,VALID,18.4049,VALID,167,VALID,0,
1999-08-29, 03:11:01,VALID,0,VALID,100,VALID,-0.0509425,VALID,18.4086,VALID,173,VALID,0,
1999-08-29, 03:12:00,VALID,0,VALID,100,VALID,-0.0509425,VALID,18.4121,VALID,182,VALID,0,
1999-08-29, 03:13:00,VALID,0,VALID,100,VALID,-0.0509425,VALID,18.3987,VALID,182,VALID,0,
1999-08-29, 03:14:00,VALID,0,VALID,100,VALID,-0.0509425,VALID,18.3992,VALID,182,VALID,0,
1999-08-29, 03:15:00,VALID,0,VALID,100,VALID,-0.0339617,VALID,18.3691,VALID,182,VALID,0,
1999-08-29, 03:16:00,VALID,0,VALID,100,VALID,-0.0679233,VALID,18.3689,VALID,181,VALID,0,
1999-08-29, 03:17:00,VALID,0,VALID,100,VALID,-0.0169808,VALID,18.3957,VALID,181,VALID,0,
1999-08-29, 03:18:00,VALID,0,VALID,100,VALID,0,VALID,18.3756,VALID,181,VALID,0,
1999-08-29, 03:19:00,VALID,0,VALID,100,VALID,0,VALID,18.3791,VALID,183,VALID,0,
1999-08-29, 03:20:00,VALID,0,VALID,100,VALID,-0.0169808,VALID,18.3758,VALID,199,VALID,0,
1999-08-29, 03:21:00,VALID,0.2,VALID,100,VALID,-0.0339617,VALID,18.3895,VALID,202,VALID,0,
1999-08-29, 03:22:00,VALID,0,VALID,100,VALID,-0.0339617,VALID,18.3892,VALID,197,VALID,0,
1999-08-29, 03:23:00,VALID,0,VALID,100,VALID,-0.0169808,VALID,18.389,VALID,220,VALID,0.139648,
1999-08-29, 03:24:00,VALID,0,VALID,100,VALID,-0.0339617,VALID,18.4054,VALID,226,VALID,0.306166,
1999-08-29, 03:25:00,VALID,0,VALID,100,VALID,-0.0509425,VALID,18.3989,VALID,219,VALID,0.236275,
1999-08-29, 03:26:00,VALID,0,VALID,100,VALID,0,VALID,18.3987,VALID,212,VALID,0.305773,
1999-08-29, 03:27:00,VALID,0,VALID,100,VALID,-0.0849042,VALID,18.3959,VALID,201,VALID,0.421875,
1999-08-29, 03:28:00,VALID,0,VALID,100,VALID,-0.0509425,VALID,18.3791,VALID,190,VALID,0.43125,
1999-08-29, 03:29:00,VALID,0.2,VALID,100,VALID,-0.0849042,VALID,18.3795,VALID,180,VALID,0.315039,
1999-08-29, 03:30:00,VALID,0,VALID,100,VALID,-0.0339617,VALID,18.3795,VALID,177,VALID,0.245117,
1999-08-29, 03:31:00,VALID,0,VALID,100,VALID,-0.0509425,VALID,18.386,VALID,165,VALID,0.405273,
1999-08-29, 03:32:00,VALID,0,VALID,100,VALID,-0.0169808,VALID,18.3895,VALID,169,VALID,0.62141,
1999-08-29, 03:33:00,VALID,0,VALID,100,VALID,-0.0509425,VALID,18.3828,VALID,172,VALID,0.699113,
1999-08-29, 03:34:00,VALID,0,VALID,100,VALID,-0.0169808,VALID,18.3761,VALID,171,VALID,0.614366,
1999-08-29, 03:35:00,VALID,0,VALID,100,VALID,-0.0169808,VALID,18.3731,VALID,178,VALID,0.628378,
1999-08-29, 03:36:00,VALID,0.2,VALID,100,VALID,-0.0679233,VALID,18.3761,VALID,179,VALID,0.76875,
1999-08-29, 03:37:00,VALID,0,VALID,100,VALID,-0.0679233,VALID,18.3698,VALID,174,VALID,0.612305,
1999-08-29, 03:38:00,VALID,0,VALID,100,VALID,-0.0339617,VALID,18.3795,VALID,182,VALID,0.650391,
1999-08-29, 03:39:00,VALID,0.2,VALID,100,VALID,-0.0169808,VALID,18.3689,VALID,189,VALID,0.822754,
1999-08-29, 03:40:00,VALID,0,VALID,100,VALID,-0.0169808,VALID,18.3724,VALID,193,VALID,0.925465,
1999-08-29, 03:41:00,VALID,0.2,VALID,100,VALID,-0.0339617,VALID,18.3888,VALID,181,VALID,0.710093,
1999-08-29, 03:42:00,VALID,0,VALID,100,VALID,-0.0339617,VALID,18.3721,VALID,188,VALID,0.921441,
1999-08-29, 03:43:00,VALID,0,VALID,100,VALID,-0.0169808,VALID,18.3788,VALID,198,VALID,0.763725,
1999-08-29, 03:44:00,VALID,0.2,VALID,100,VALID,-0.0169808,VALID,18.3952,VALID,201,VALID,0.785491,
1999-08-29, 03:45:00,VALID,0,VALID,100,VALID,-0.0169808,VALID,18.3883,VALID,211,VALID,0.535156,
1999-08-29, 03:46:00,VALID,0.2,VALID,100,VALID,-0.0169808,VALID,18.3888,VALID,199,VALID,0.509375,
1999-08-29, 03:47:00,VALID,0,VALID,100,VALID,0,VALID,18.3985,VALID,192,VALID,0.52124,
1999-08-29, 03:48:00,VALID,0,VALID,100,VALID,-0.0339617,VALID,18.3985,VALID,204,VALID,0.267525,
1999-08-29, 03:49:00,VALID,0.2,VALID,100,VALID,-0.0509425,VALID,18.4049,VALID,227,VALID,0.47973,
1999-08-29, 03:50:00,VALID,0,VALID,100,VALID,-0.0509425,VALID,18.4148,VALID,215,VALID,0.767361,
1999-08-29, 03:51:00,VALID,0,VALID,100,VALID,-0.0679233,VALID,18.4082,VALID,219,VALID,0.654772,
1999-08-29, 03:52:00,VALID,0,VALID,100,VALID,-0.0679233,VALID,18.4114,VALID,192,VALID,0.836607,
1999-08-29, 03:53:00,VALID,0.2,VALID,100,VALID,-0.0679233,VALID,18.4017,VALID,147,VALID,1.00215,
1999-08-29, 03:54:00,VALID,0,VALID,100,VALID,-0.0169808,VALID,18.4148,VALID,146,VALID,0.749219,
1999-08-29, 03:55:00,VALID,0,VALID,100,VALID,-0.0679233,VALID,18.4183,VALID,148,VALID,0.664063,
1999-08-29, 03:56:00,VALID,0,VALID,100,VALID,-0.0339617,VALID,18.4243,VALID,139,VALID,0.589105,
1999-08-29, 03:57:00,VALID,0.2,VALID,100,VALID,-0.0679233,VALID,18.4148,VALID,143,VALID,0.693412,
1999-08-29, 03:58:00,VALID,0,VALID,100,VALID,-0.0169808,VALID,18.3985,VALID,155,VALID,1.08268,
1999-08-29, 03:59:00,VALID,0,VALID,100,VALID,-0.0169808,VALID,18.3918,VALID,136,VALID,0.647382,
1999-08-29, 04:00:00,VALID,0,VALID,100,VALID,0,VALID,18.3918,VALID,148,VALID,0.38817,
1999-08-29, 04:01:00,VALID,0,VALID,100,VALID,-0.0509425,VALID,18.3883,VALID,152,VALID,0.561328,
1999-08-29, 04:02:00,VALID,0,VALID,100,VALID,-0.0169808,VALID,18.395,VALID,163,VALID,0.410937,
1999-08-29, 04:03:00,VALID,0,VALID,100,VALID,-0.0509425,VALID,18.3786,VALID,187,VALID,0.634277,
1999-08-29, 04:04:00,VALID,0.2,VALID,100,VALID,-0.0169808,VALID,18.3786,VALID,182,VALID,0.698057,
1999-08-29, 04:05:00,VALID,0,VALID,100,VALID,-0.0169808,VALID,18.3691,VALID,177,VALID,0.71136,
1999-08-29, 04:06:00,VALID,0,VALID,100,VALID,-0.0509425,VALID,18.3726,VALID,172,VALID,0.591146,
1999-08-29, 04:07:01,VALID,0,VALID,100,VALID,-0.0169808,VALID,18.3495,VALID,180,VALID,0.972973,
1999-08-29, 04:08:00,VALID,0,VALID,100,VALID,-0.0509425,VALID,18.331,VALID,169,VALID,0.962277,
1999-08-29, 04:09:00,VALID,0,VALID,100,VALID,-0.0339617,VALID,18.3045,VALID,163,VALID,0.986328,
1999-08-29, 04:10:00,VALID,0.2,VALID,100,VALID,-0.0509425,VALID,18.2786,VALID,151,VALID,1.0541,
1999-08-29, 04:11:00,VALID,0,VALID,100,VALID,-0.0849042,VALID,18.272,VALID,174,VALID,0.727051,
1999-08-29, 04:12:00,VALID,0.2,VALID,100,VALID,-0.0169808,VALID,18.2597,VALID,139,VALID,1.26077,
1999-08-29, 04:13:00,VALID,0,VALID,100,VALID,-0.0339617,VALID,18.2793,VALID,152,VALID,0.722762,
1999-08-29, 04:14:00,VALID,0.2,VALID,100,VALID,-0.0679233,VALID,18.2537,VALID,163,VALID,1.43576,
1999-08-29, 04:15:00,VALID,0.2,VALID,100,VALID,-0.0679233,VALID,18.2276,VALID,169,VALID,1.03209,
1999-08-29, 04:16:00,VALID,0.2,VALID,100,VALID,-0.0509425,VALID,18.2244,VALID,142,VALID,0.718973,
1999-08-29, 04:17:00,VALID,0.2,VALID,100,VALID,-0.0679233,VALID,18.2078,VALID,145,VALID,0.801953,
1999-08-29, 04:18:00,VALID,0,VALID,100,VALID,-0.101885,VALID,18.1822,VALID,148,VALID,0.513477,